This is the latest recevied weather packets stored in our database for station/object KO5MO-3. If no packets are shown the sender has not sent any weather packets the latest 10 day(s).
| Time | Temp. | Humidity | Pressure | Rain* | Wind** | Luminosity | Snow |
|---|---|---|---|---|---|---|---|
| 1777699098 | 25° C | 31% | 1006.9 hPa | 0 mm | - | - | - |
| 1777698798 | 25° C | 31% | 1006.9 hPa | 0 mm | - | - | - |
| 1777698498 | 25.56° C | 30% | 1006.9 hPa | 0 mm | - | - | - |
| 1777698198 | 25.56° C | 30% | 1006.8 hPa | 0 mm | - | - | - |
| 1777697898 | 25.56° C | 30% | 1006.9 hPa | 0 mm | - | - | - |
| 1777697598 | 26.11° C | 29% | 1006.8 hPa | 0 mm | - | - | - |
| 1777697298 | 26.11° C | 29% | 1006.9 hPa | 0 mm | - | - | - |
| 1777696998 | 26.11° C | 29% | 1006.8 hPa | 0 mm | - | - | - |
| 1777696698 | 26.67° C | 29% | 1006.8 hPa | 0 mm | - | - | - |
| 1777696398 | 26.67° C | 28% | 1006.8 hPa | 0 mm | - | - | - |
| 1777696098 | 26.11° C | 29% | 1006.7 hPa | 0 mm | - | - | - |
| 1777695798 | 26.11° C | 29% | 1006.7 hPa | 0 mm | - | - | - |
| 1777695498 | 25.56° C | 29% | 1006.7 hPa | 0 mm | - | - | - |
| 1777695198 | 26.11° C | 29% | 1006.6 hPa | 0 mm | - | - | - |
| 1777694898 | 26.11° C | 29% | 1006.5 hPa | 0 mm | - | - | - |
| 1777694598 | 26.11° C | 29% | 1006.5 hPa | 0 mm | - | - | - |
| 1777694298 | 27.22° C | 28% | 1006.5 hPa | 0 mm | - | - | - |
| 1777693998 | 27.22° C | 28% | 1006.5 hPa | 0 mm | - | - | - |
| 1777693698 | 27.22° C | 28% | 1006.4 hPa | 0 mm | - | - | - |
| 1777693398 | 27.22° C | 28% | 1006.3 hPa | 0 mm | - | - | - |
| 1777693098 | 27.22° C | 28% | 1006.3 hPa | 0 mm | - | - | - |
| 1777692798 | 27.22° C | 29% | 1006.2 hPa | 0 mm | - | - | - |
| 1777692498 | 27.78° C | 28% | 1006.3 hPa | 0 mm | - | - | - |
| 1777692198 | 27.78° C | 28% | 1006.1 hPa | 0 mm | - | - | - |
| 1777691898 | 27.78° C | 28% | 1006 hPa | 0 mm | - | - | - |
* Rain latest hour (hover to see other rain measurements)
** Current wind speed in m/s (hover to see current wind gust speed)